H1 CPF 2 NER 2023 1 4 9 004 01 glonass127 H2 1106403 9127 37869 2023 1 4 0 0 0 2023 1 7 23 45 0 900 1 1 0 0 0 1 H9 10 0 59948 0.00000 0 -17756627.226 4691398.907 17739745.689 10 0 59948 900.00000 0 -19784785.611 4424928.894 15512912.419 10 0 59948 1800.00000 0 -21537236.073 4340112.853 12985457.364 10 0 59948 2700.00000 0 -22965780.718 4398749.615 10206141.009 10 0 59948 3600.00000 0 -24032589.457 4554813.356 7228693.801 10 0 59948 4500.00000 0 -24711684.467 4756605.638 4110792.048 10 0 59948 5400.00000 0 -24989949.964 4949160.696 912949.063 10 0 59948 6300.00000 0 -24867622.560 5076802.779 -2302657.780 10 0 59948 7200.00000 0 -24358239.024 5085746.884 -5473401.276 10 0 59948 8100.00000 0 -23488041.183 4926631.402 -8537435.612 10 0 59948 9000.00000 0 -22294860.966 4556873.142 -11434919.337 10 0 59948 9900.00000 0 -20826531.169 3942742.130 -14109204.300 10 0 59948 10800.00000 0 -19138888.255 3061065.007 -16507965.300 10 0 59948 11700.00000 0 -17293451.515 1900481.523 -18584246.130 10 0 59948 12600.00000 0 -15354877.299 462197.800 -20297399.358 10 0 59948 13500.00000 0 -13388296.934 -1239798.233 -21613899.597 10 0 59948 14400.00000 0 -11456652.115 -3179070.518 -22508012.836 10 0 59948 15300.00000 0 -9618141.700 -5317604.927 -22962307.622 10 0 59948 16200.00000 0 -7923888.716 -7607179.721 -22967997.566 10 0 59948 17100.00000 0 -6415926.659 -9991178.764 -22525108.414 10 0 59948 18000.00000 0 -5125590.041 -12406770.571 -21642466.822 10 0 59948 18900.00000 0 -4072376.275 -14787360.749 -20337511.947 10 0 59948 19800.00000 0 -3263325.338 -17065213.807 -18635934.693 10 0 59948 20700.00000 0 -2692941.204 -19174133.216 -16571153.227 10 0 59948 21600.00000 0 -2343655.488 -21052086.652 -14183636.653 10 0 59948 22500.00000 0 -2186810.567 -22643666.092 -11520091.844 10 0 59948 23400.00000 0 -2184117.326 -23902279.929 -8632531.154 10 0 59948 24300.00000 0 -2289522.758 -24791986.274 -5577240.863 10 0 59948 25200.00000 0 -2451405.606 -25288892.282 -2413671.978 10 0 59948 26100.00000 0 -2615005.005 -25382063.051 796723.778 10 0 59948 27000.00000 0 -2724977.934 -25073904.683 3991689.325 10 0 59948 27900.00000 0 -2727976.664 -24380008.226 7109365.457 10 0 59948 28800.00000 0 -2575137.435 -23328463.766 10089478.697 10 0 59948 29700.00000 0 -2224376.119 -21958675.702 12874491.599 10 0 59948 30600.00000 0 -1642395.354 -20319730.474 15410694.565 10 0 59948 31500.00000 0 -806320.237 -18468385.923 17649219.761 10 0 59948 32400.00000 0 295104.675 -16466766.218 19546959.747 10 0 59948 33300.00000 0 1660806.103 -14379857.603 21067375.383 10 0 59948 34200.00000 0 3277189.548 -12272907.654 22181179.716 10 0 59948 35100.00000 0 5118471.777 -10208833.936 22866886.757 10 0 59948 36000.00000 0 7147525.425 -8245747.194 23111216.280 10 0 59948 36900.00000 0 9317202.302 -6434689.293 22909347.920 10 0 59948 37800.00000 0 11572082.921 -4817677.412 22265020.106 10 0 59948 38700.00000 0 13850582.599 -3426133.742 21190471.578 10 0 59948 39600.00000 0 16087329.803 -2279764.723 19706225.517 10 0 59948 40500.00000 0 18215721.154 -1385935.884 17840718.727 10 0 59948 41400.00000 0 20170549.600 -739568.621 15629780.702 10 0 59948 42300.00000 0 21890598.450 -323564.176 13115970.135 10 0 59948 43200.00000 0 23321094.359 -109738.505 10347778.972 10 0 59948 44100.00000 0 24415917.114 -60230.495 7378716.894 10 0 59948 45000.00000 0 25139472.985 -129326.028 4266291.900 10 0 59948 45900.00000 0 25468151.535 -265622.334 1070905.159 10 0 59948 46800.00000 0 25391302.423 -414442.015 -2145319.282 10 0 59948 47700.00000 0 24911688.418 -520394.693 -5319747.235 10 0 59948 48600.00000 0 24045392.778 -529976.922 -8390465.334 10 0 59948 49500.00000 0 22821182.303 -394098.537 -11297505.000 10 0 59948 50400.00000 0 21279350.870 -70425.900 -13984033.678 10 0 59948 51300.00000 0 19470090.826 474560.188 -16397487.989 10 0 59948 52200.00000 0 17451460.269 1263882.377 -18490624.493 10 0 59948 53100.00000 0 15287032.116 2308834.790 -20222465.226 10 0 59948 54000.00000 0 13043324.816 3608256.256 -21559117.676 10 0 59948 54900.00000 0 10787124.117 5148341.794 -22474451.585 10 0 59948 55800.00000 0 8582810.127 6903002.003 -22950618.197 10 0 59948 56700.00000 0 6489803.411 8834756.135 -22978401.243 10 0 59948 57600.00000 0 4560238.521 10896121.453 -22557392.714 10 0 59948 58500.00000 0 2836963.194 13031439.911 -21695990.380 10 0 59948 59400.00000 0 1351946.978 15179064.427 -20411217.966 10 0 59948 60300.00000 0 125165.021 17273811.670 -18728372.676 10 0 59948 61200.00000 0 -835997.923 19249577.013 -16680508.457 10 0 59948 62100.00000 0 -1536800.913 21042000.734 -14307766.800 10 0 59948 63000.00000 0 -1994658.608 22591072.836 -11656569.862 10 0 59948 63900.00000 0 -2238135.460 23843566.865 -8778693.569 10 0 59948 64800.00000 0 -2305468.344 24755201.038 -5730240.426 10 0 59948 65700.00000 0 -2242683.276 25292437.062 -2570533.570 10 0 59948 66600.00000 0 -2101388.556 25433842.836 639045.105 10 0 59948 67500.00000 0 -1936339.746 25170964.084 3836249.357 10 0 59948 68400.00000 0 -1802880.662 24508670.822 6959171.995 10 0 59948 69300.00000 0 -1754368.900 23464966.662 9947434.057 10 0 59948 70200.00000 0 -1839694.236 22070271.258 12743337.463 10 0 59948 71100.00000 0 -2100993.501 20366207.683 15292960.183 10 0 59948 72000.00000 0 -2571656.738 18403946.601 17547174.406 10 0 59948 72900.00000 0 -3274706.817 16242176.604 19462570.218 10 0 59948 73800.00000 0 -4221619.105 13944784.687 21002269.252 10 0 59948 74700.00000 0 -5411629.496 11578342.046 22136614.901 10 0 59948 75600.00000 0 -6831559.372 9209497.526 22843727.914 10 0 59948 76500.00000 0 -8456165.165 6902384.349 23109918.377 10 0 59948 77400.00000 0 -10248999.129 4716144.971 22929947.284 10 0 59948 78300.00000 0 -12163747.510 2702673.946 22307133.094 10 0 59948 79200.00000 0 -14145993.104 904670.047 21253300.961 10 0 59948 80100.00000 0 -16135331.870 -645923.266 19788574.526 10 0 59948 81000.00000 0 -18067758.739 -1929025.337 17941012.605 10 0 59948 81900.00000 0 -19878226.221 -2937027.978 15746095.511 10 0 59948 82800.00000 0 -21503271.560 -3674881.348 13246068.383 10 0 59948 83700.00000 0 -22883604.481 -4159651.428 10489151.537 10 0 59948 84600.00000 0 -23966548.040 -4419566.119 7528630.557 10 0 59948 85500.00000 0 -24708230.038 -4492588.336 4421841.651 10 0 59949 0.00000 0 -25075431.785 -4424574.731 1229070.614 10 0 59949 900.00000 0 -25047014.540 -4267096.540 -1987615.893 10 0 59949 1800.00000 0 -24614860.499 -4075014.324 -5165579.780 10 0 59949 2700.00000 0 -23784286.350 -3903909.479 -8242843.333 10 0 59949 3600.00000 0 -22573908.441 -3807482.549 -11159313.855 10 0 59949 4500.00000 0 -21014962.875 -3835030.542 -13857977.126 10 0 59949 5400.00000 0 -19150107.140 -4029112.777 -16286034.029 10 0 59949 6300.00000 0 -17031752.476 -4423507.115 -18395955.928 10 0 59949 7200.00000 0 -14719996.803 -5041546.222 -20146435.901 10 0 59949 8100.00000 0 -12280245.492 -5894907.162 -21503215.347 10 0 59949 9000.00000 0 -9780620.904 -6982908.028 -22439768.208 10 0 59949 9900.00000 0 -7289270.886 -8292343.164 -22937828.271 10 0 59949 10800.00000 0 -4871690.579 -9797865.095 -22987748.657 10 0 59949 11700.00000 0 -2588171.100 -11462897.482 -22588686.349 10 0 59949 12600.00000 0 -491482.931 -13241040.284 -21748608.529 10 0 59949 13500.00000 0 1375108.736 -15077907.116 -20484121.425 10 0 59949 14400.00000 0 2979414.164 -16913316.171 -18820126.186 10 0 59949 15300.00000 0 4301410.306 -18683741.085 -16789309.985 10 0 59949 16200.00000 0 5333809.650 -20324917.217 -14431483.984 10 0 59949 17100.00000 0 6082085.802 -21774492.641 -11792782.843 10 0 59949 18000.00000 0 6563958.111 -22974611.616 -8924743.235 10 0 59949 18900.00000 0 6808360.810 -23874321.823 -5883281.078 10 0 59949 19800.00000 0 6853943.722 -24431704.695 -2727588.886 10 0 59949 20700.00000 0 6747171.032 -24615640.457 481023.942 10 0 59949 21600.00000 0 6540101.089 -24407135.443 3680324.535 10 0 59949 22500.00000 0 6287942.875 -23800158.059 6808360.122 10 0 59949 23400.00000 0 6046493.307 -22801950.588 9804648.474 10 0 59949 24300.00000 0 5869563.665 -21432805.969 12611332.906 10 0 59949 25200.00000 0 5806503.023 -19725320.713 15174280.768 10 0 59949 26100.00000 0 5899921.672 -17723156.482 17444105.835 10 0 59949 27000.00000 0 6183708.686 -15479362.544 19377096.993 10 0 59949 27900.00000 0 6681425.148 -13054328.629 20936037.615 10 0 59949 28800.00000 0 7405138.921 -10513452.249 22090902.077 10 0 59949 29700.00000 0 8354748.712 -7924615.402 22819418.154 10 0 59949 30600.00000 0 9517825.438 -5355572.799 23107486.207 10 0 59949 31500.00000 0 10869977.979 -2871357.119 22949448.208 10 0 59949 32400.00000 0 12375729.498 -531805.802 22348201.981 10 0 59949 33300.00000 0 13989869.931 1610690.858 21315158.148 10 0 59949 34200.00000 0 15659230.973 3513129.112 19870039.617 10 0 59949 35100.00000 0 17324812.612 5143439.780 18040525.810 10 0 59949 36000.00000 0 18924175.535 6481581.345 15861746.227 10 0 59949 36900.00000 0 20394002.169 7520132.534 13375630.616 10 0 59949 37800.00000 0 21672721.361 8264358.924 10630125.625 10 0 59949 38700.00000 0 22703087.996 8731749.552 7678290.478 10 0 59949 39600.00000 0 23434609.552 8951041.295 4577287.139 10 0 59949 40500.00000 0 23825716.834 8960770.476 1387282.821 10 0 59949 41400.00000 0 23845585.806 8807411.369 -1829714.791 10 0 59949 42300.00000 0 23475531.238 8543179.316 -5011067.072 10 0 59949 43200.00000 0 22709910.396 8223591.228 -8094734.708 10 0 59949 44100.00000 0 21556495.459 7904887.400 -11020503.490 10 0 59949 45000.00000 0 20036295.903 7641425.268 -13731179.925 10 0 59949 45900.00000 0 18182835.730 7483157.716 -16173731.273 10 0 59949 46800.00000 0 16040914.055 7473305.372 -18300345.521 10 0 59949 47700.00000 0 13664900.127 7646324.361 -20069388.317 10 0 59949 48600.00000 0 11116634.194 8026258.363 -21446236.219 10 0 59949 49500.00000 0 8463022.793 8625547.197 -22403968.357 10 0 59949 50400.00000 0 5773430.442 9444344.267 -22923901.797 10 0 59949 51300.00000 0 3116978.384 10470373.000 -22995959.509 10 0 59949 52200.00000 0 559864.808 11679328.886 -22618863.628 10 0 59949 53100.00000 0 -1837180.070 13035809.957 -21800150.550 10 0 59949 54000.00000 0 -4021197.055 14494735.618 -20556008.434 10 0 59949 54900.00000 0 -5948962.915 16003192.748 -18910941.395 10 0 59949 55800.00000 0 -7588535.818 17502629.607 -16897268.453 10 0 59949 56700.00000 0 -8920318.419 18931303.475 -14554468.703 10 0 59949 57600.00000 0 -9937596.574 20226877.400 -11928387.223 10 0 59949 58500.00000 0 -10646534.280 21329055.480 -9070319.087 10 0 59949 59400.00000 0 -11065628.693 22182145.063 -6035991.058 10 0 59949 60300.00000 0 -11224651.918 22737437.952 -2884462.306 10 0 59949 61200.00000 0 -11163127.679 22955310.982 323033.091 10 0 59949 62100.00000 0 -10928410.245 22806958.804 3524278.513 10 0 59949 63000.00000 0 -10573449.073 22275687.732 6657278.480 10 0 59949 63900.00000 0 -10154335.032 21357718.251 9661450.327 10 0 59949 64800.00000 0 -9727732.384 20062464.590 12478781.504 10 0 59949 65700.00000 0 -9348304.523 18412281.398 15054931.346 10 0 59949 66600.00000 0 -9066240.865 16441689.556 17340257.644 10 0 59949 67500.00000 0 -8924987.372 14196114.127 19290750.313 10 0 59949 68400.00000 0 -8959274.154 11730186.927 20868856.448 10 0 59949 69300.00000 0 -9193521.047 9105683.477 22044183.105 10 0 59949 70200.00000 0 -9640686.411 6389178.264 22794066.464 10 0 59949 71100.00000 0 -10301606.342 3649513.120 23103998.157 10 0 59949 72000.00000 0 -11164851.668 955180.865 22967901.732 10 0 59949 72900.00000 0 -12207109.362 -1628270.540 22388254.501 10 0 59949 73800.00000 0 -13394073.931 -4040708.833 21376052.184 10 0 59949 74700.00000 0 -14681813.741 -6229663.437 19950616.065 10 0 59949 75600.00000 0 -16018557.938 -8152255.499 18139244.753 10 0 59949 76500.00000 0 -17346832.245 -9776733.122 15976715.013 10 0 59949 77400.00000 0 -18605857.053 -11083548.252 13504638.820 10 0 59949 78300.00000 0 -19734109.760 -12065929.987 10770686.355 10 0 59949 79200.00000 0 -20671945.565 -12729929.321 7827687.395 10 0 59949 80100.00000 0 -21364167.307 -13093931.872 4732626.327 10 0 59949 81000.00000 0 -21762435.964 -13187657.402 1545548.607 10 0 59949 81900.00000 0 -21827418.957 -13050686.625 -1671601.153 10 0 59949 82800.00000 0 -21530583.410 -12730576.175 -4856187.019 10 0 59949 83700.00000 0 -20855555.834 -12280640.754 -7946111.518 10 0 59949 84600.00000 0 -19798987.519 -11757496.367 -10881042.249 10 0 59949 85500.00000 0 -18370885.784 -11218469.548 -13603609.568 10 0 59950 0.00000 0 -16594394.227 -10718983.964 -16060549.762 10 0 59950 900.00000 0 -14505027.652 -10310037.076 -18203770.395 10 0 59950 1800.00000 0 -12149394.621 -10035876.886 -19991311.500 10 0 59950 2700.00000 0 -9583457.195 -9931978.912 -21388186.307 10 0 59950 3600.00000 0 -6870403.129 -10023412.061 -22367080.047 10 0 59950 4500.00000 0 -4078219.476 -10323664.272 -22908893.338 10 0 59950 5400.00000 0 -1277070.459 -10833978.934 -23003118.655 10 0 59950 6300.00000 0 1463409.396 -11543230.794 -22648042.355 10 0 59950 7200.00000 0 4076792.329 -12428346.458 -21850768.640 10 0 59950 8100.00000 0 6502391.824 -13455250.915 -20627065.767 10 0 59950 9000.00000 0 8687548.228 -14580298.790 -19001038.647 10 0 59950 9900.00000 0 10589570.234 -15752128.145 -17004635.715 10 0 59950 10800.00000 0 12177252.310 -16913856.685 -14677001.332 10 0 59950 11700.00000 0 13431906.561 -18005525.840 -12063688.143 10 0 59950 12600.00000 0 14347868.533 -18966687.989 -9215746.611 10 0 59950 13500.00000 0 14932459.123 -19739026.532 -6188711.217 10 0 59950 14400.00000 0 15205407.851 -20268897.752 -3041504.593 10 0 59950 15300.00000 0 15197765.409 -20509687.348 164717.696 10 0 59950 16200.00000 0 14950354.717 -20423883.084 3367758.398 10 0 59950 17100.00000 0 14511828.577 -19984777.518 6505582.284 10 0 59950 18000.00000 0 13936417.886 -19177730.879 9517508.987 10 0 59950 18900.00000 0 13281466.467 -18000942.848 12345372.529 10 0 59950 19800.00000 0 12604856.623 -16465702.616 14934626.332 10 0 59950 20700.00000 0 11962433.091 -14596108.208 17235373.923 10 0 59950 21600.00000 0 11405532.374 -12428267.651 19203307.571 10 0 59950 22500.00000 0 10978719.297 -10009015.422 20800539.009 10 0 59950 23400.00000 0 10717823.687 -7394196.989 21996308.489 10 0 59950 24300.00000 0 10648357.398 -4646591.195 22767560.714 10 0 59950 25200.00000 0 10784376.352 -1833554.417 23099378.330 10 0 59950 26100.00000 0 11127834.211 975518.583 22985265.848 10 0 59950 27000.00000 0 11668454.505 3711815.121 22427279.133 10 0 59950 27900.00000 0 12384127.274 6309701.059 21435997.786 10 0 59950 28800.00000 0 13241815.160 8709188.566 20030339.997 10 0 59950 29700.00000 0 14198933.259 10858175.309 18237221.862 10 0 59950 30600.00000 0 15205147.603 12714363.855 16091065.514 10 0 59950 31500.00000 0 16204519.686 14246782.243 13633163.073 10 0 59950 32400.00000 0 17137909.593 15436842.400 10910906.008 10 0 59950 33300.00000 0 17945538.796 16278891.438 7976892.217 10 0 59950 34200.00000 0 18569606.001 16780231.284 4887925.954 10 0 59950 35100.00000 0 18956846.096 16960604.126 1703928.241 10 0 59950 36000.00000 0 19060923.457 16851163.468 -1513222.118 10 0 59950 36900.00000 0 18844556.803 16492972.531 -4700894.601 10 0 59950 37800.00000 0 18281283.205 15935092.277 -7796936.206 10 0 59950 38700.00000 0 17356783.527 15232339.393 -10740898.785 10 0 59950 39600.00000 0 16069709.851 14442809.388 -13475238.767 10 0 59950 40500.00000 0 14431976.584 13625270.716 -15946463.817 10 0 59950 41400.00000 0 12468499.876 12836541.964 -18106201.826 10 0 59950 42300.00000 0 10216394.055 12128965.318 -19912169.043 10 0 59950 43200.00000 0 7723657.204 11548085.627 -21329016.467 10 0 59950 44100.00000 0 5047400.363 11130635.528 -22329036.284 10 0 59950 45000.00000 0 2251694.745 10902913.836 -22892713.282 10 0 59950 45900.00000 0 -594872.179 10879627.143 -23009109.807 10 0 59950 46800.00000 0 -3421828.351 11063244.268 -22676076.519 10 0 59950 47700.00000 0 -6159525.184 11443890.795 -21900285.156 10 0 59950 48600.00000 0 -8741807.704 11999787.352 -20697083.430 10 0 59950 49500.00000 0 -11108534.529 12698211.675 -19090176.020 10 0 59950 50400.00000 0 -13207842.130 13496941.934 -17111139.347 10 0 59950 51300.00000 0 -14998059.413 14346118.171 -14798781.279 10 0 59950 52200.00000 0 -16449193.967 15190441.007 -12198359.984 10 0 59950 53100.00000 0 -17543929.915 15971612.685 -9360679.069 10 0 59950 54000.00000 0 -18278098.486 16630915.699 -6341078.338 10 0 59950 54900.00000 0 -18660604.951 17111818.969 -3198341.412 10 0 59950 55800.00000 0 -18712818.518 17362501.063 6457.187 10 0 59950 56700.00000 0 -18467454.409 17338184.169 3211142.125 10 0 59950 57600.00000 0 -17966998.264 17003181.236 6353640.994 10 0 59950 58500.00000 0 -17261741.694 16332571.334 9373178.289 10 0 59950 59400.00000 0 -16407513.374 15313434.399 12211437.147 10 0 59950 60300.00000 0 -15463201.858 13945595.125 14813667.556 10 0 59950 61200.00000 0 -14488174.092 12241846.329 17129721.171 10 0 59950 62100.00000 0 -13539697.016 10227643.467 19114994.852 10 0 59950 63000.00000 0 -12670468.692 7940283.394 20731267.002 10 0 59950 63900.00000 0 -11926360.323 5427601.274 21947412.838 10 0 59950 64800.00000 0 -11344461.385 2746238.535 22739987.050 10 0 59950 65700.00000 0 -10951507.563 -40448.224 23093664.406 10 0 59950 66600.00000 0 -10762755.561 -2864753.271 23001531.099 10 0 59950 67500.00000 0 -10781350.847 -5657167.859 22465221.852 10 0 59950 68400.00000 0 -10998214.635 -8349004.226 21494899.999 10 0 59950 69300.00000 0 -11392455.545 -10874991.904 20109080.033 10 0 59950 70200.00000 0 -11932290.274 -13175741.445 18334294.481 10 0 59950 71100.00000 0 -12576436.824 -15199975.474 16204609.337 10 0 59950 72000.00000 0 -13275924.378 -16906435.477 13760994.944 10 0 59950 72900.00000 0 -13976246.314 -18265385.359 11050561.765 10 0 59950 73800.00000 0 -14619768.023 -19259648.517 8125673.228 10 0 59950 74700.00000 0 -15148289.726 -19885133.735 5042950.604 10 0 59950 75600.00000 0 -15505656.903 -20150826.173 1862187.459 10 0 59950 76500.00000 0 -15640307.903 -20078241.782 -1354806.365 10 0 59950 77400.00000 0 -15507649.739 -19700366.173 -4545408.999 10 0 59950 78300.00000 0 -15072159.432 -19060121.119 -7647415.192 10 0 59950 79200.00000 0 -14309119.044 -18208422.401 -10600264.333 10 0 59950 80100.00000 0 -13205907.677 -17201910.816 -13346242.130 10 0 59950 81000.00000 0 -11762792.291 -16100452.777 -15831630.481 10 0 59950 81900.00000 0 -9993180.569 -14964517.441 -18007780.875 10 0 59950 82800.00000 0 -7923322.362 -13852543.076 -19832088.017 10 0 59950 83700.00000 0 -5591470.098 -12818406.127 -21268842.705 10 0 59950 84600.00000 0 -3046532.045 -11909102.119 -22289945.579 10 0 59950 85500.00000 0 -346274.543 -11162738.322 -22875466.528 10 0 59951 0.00000 0 2444850.995 -10606924.464 -23014038.115 10 0 59951 900.00000 0 5258166.048 -10257629.992 -22703075.116 10 0 59951 1800.00000 0 8023400.099 -10118556.865 -21948816.061 10 0 59951 2700.00000 0 10671396.567 -10181052.624 -20766186.967 10 0 59951 3600.00000 0 13136771.684 -10424566.749 -19178490.735 10 0 59951 4500.00000 0 15360416.071 -10817628.656 -17216929.883 10 0 59951 5400.00000 0 17291734.254 -11319303.667 -14919973.545 10 0 59951 6300.00000 0 18890529.299 -11881062.859 -12332582.845 10 0 59951 7200.00000 0 20128455.196 -12448985.278 -9505311.639 10 0 59951 8100.00000 0 20989978.539 -12966197.241 -6493301.875 10 0 59951 9000.00000 0 21472812.120 -13375443.948 -3355194.744 10 0 59951 9900.00000 0 21587805.520 -13621683.651 -151980.175 10 0 59951 10800.00000 0 21358300.742 -13654594.439 3054192.005 10 0 59951 11700.00000 0 20818983.226 -13430888.153 6201215.702 10 0 59951 12600.00000 0 20014279.293 -12916334.755 9228223.553 10 0 59951 13500.00000 0 18996369.515 -12087413.242 12076750.782 10 0 59951 14400.00000 0 17822902.665 -10932521.203 14691846.528 10 0 59951 15300.00000 0 16554506.522 -9452693.768 17023112.727 10 0 59951 16200.00000 0 15252199.322 -7661803.010 19025652.525 10 0 59951 17100.00000 0 13974808.836 -5586230.057 20660912.242 10 0 59951 18000.00000 0 12776505.095 -3264023.580 21897402.871 10 0 59951 18900.00000 0 11704547.522 -743578.764 22711289.464 10 0 59951 19800.00000 0 10797338.174 1918110.074 23086838.887 10 0 59951 20700.00000 0 10082860.221 4657553.063 23016718.589 10 0 59951 21600.00000 0 9577565.229 7407140.373 22502141.354 10 0 59951 22500.00000 0 9285754.760 10097694.680 21552853.104 10 0 59951 23400.00000 0 9199482.107 12661097.937 20186963.168 10 0 59951 24300.00000 0 9298979.007 15032886.611 18430618.742 10 0 59951 25200.00000 0 9553590.979 17154710.083 16317527.660 10 0 59951 26100.00000 0 9923184.129 18976551.660 13888336.234 10 0 59951 27000.00000 0 10359966.604 20458620.472 11189871.454 10 0 59951 27900.00000 0 10810650.301 21572835.173 8274259.622 10 0 59951 28800.00000 0 11218863.561 22303836.303 5197936.218 10 0 59951 29700.00000 0 11527714.167 22649483.237 2020564.426 10 0 59951 30600.00000 0 11682394.594 22620812.747 -1196117.853 10 0 59951 31500.00000 0 11632718.583 22241458.656 -4389500.345 10 0 59951 32400.00000 0 11335479.992 21546555.068 -7497328.381 10 0 59951 33300.00000 0 10756531.460 20581167.847 -10458931.516 10 0 59951 34200.00000 0 9872491.785 19398319.698 -13216427.103 10 0 59951 35100.00000 0 8672006.249 18056692.156 -15715873.336 10 0 59951 36000.00000 0 7156503.120 16618102.214 -17908347.037 10 0 59951 36900.00000 0 5340411.188 15144861.534 -19750922.790 10 0 59951 37800.00000 0 3250826.574 13697131.533 -21207532.314 10 0 59951 38700.00000 0 926640.840 12330387.971 -22249685.552 10 0 59951 39600.00000 0 -1582833.891 11093103.960 -22857038.053 10 0 59951 40500.00000 0 -4219685.431 10024750.649 -23017792.851 10 0 59951 41400.00000 0 -6919590.883 9154200.838 -22728928.723 10 0 59951 42300.00000 0 -9614282.185 8498603.067 -21996250.614 10 0 59951 43200.00000 0 -12234183.492 8062773.039 -20834261.997 10 0 59951 44100.00000 0 -14711108.928 7839126.629 -19265862.736 10 0 59951 45000.00000 0 -16980906.891 7808155.289 -17321879.797 10 0 59951 45900.00000 0 -18985939.887 7939421.127 -15040441.602 10 0 59951 46800.00000 0 -20677296.415 8193026.827 -12466210.009 10 0 59951 47700.00000 0 -22016643.134 8521495.367 -9649486.728 10 0 59951 48600.00000 0 -22977641.540 8871977.406 -6645213.377 10 0 59951 49500.00000 0 -23546872.089 9188690.742 -3511886.206 10 0 59951 50400.00000 0 -23724229.884 9415487.039 -310408.029 10 0 59951 51300.00000 0 -23522778.500 9498436.388 2897099.342 10 0 59951 52200.00000 0 -22968071.265 9388320.273 6048498.625 10 0 59951 53100.00000 0 -22096971.381 9042928.209 9082833.090 10 0 59951 54000.00000 0 -20956022.815 8429062.249 11941492.503 10 0 59951 54900.00000 0 -19599441.906 7524166.334 14569327.552 10 0 59951 55800.00000 0 -18086814.648 6317513.525 16915692.726 10 0 59951 56700.00000 0 -16480595.884 4810902.652 18935399.574 10 0 59951 57600.00000 0 -14843513.928 3018836.085 20589564.197 10 0 59951 58500.00000 0 -13235987.292 968171.553 21846334.933 10 0 59951 59400.00000 0 -11713658.998 -1302738.008 22681488.430 10 0 59951 60300.00000 0 -10325148.717 -3745382.148 23078884.509 10 0 59951 61200.00000 0 -9110113.982 -6302854.581 23030772.365 10 0 59951 62100.00000 0 -8097699.077 -8911968.545 22537942.946 10 0 59951 63000.00000 0 -7305434.685 -11505641.332 21609724.492 10 0 59951 63900.00000 0 -6738633.431 -14015452.325 20263820.530 10 0 59951 64800.00000 0 -6390306.538 -16374271.691 18525991.927 10 0 59951 65700.00000 0 -6241605.941 -18518853.284 16429587.020 10 0 59951 66600.00000 0 -6262774.805 -20392285.931 14014926.420 10 0 59951 67500.00000 0 -6414568.522 -21946202.203 11328551.694 10 0 59951 68400.00000 0 -6650088.471 -23142652.683 8422349.812 10 0 59951 69300.00000 0 -6916953.217 -23955566.567 5352568.056 10 0 59951 70200.00000 0 -7159716.943 -24371735.873 2178736.655 10 0 59951 71100.00000 0 -7322433.564 -24391279.802 -1037481.129 10 0 59951 72000.00000 0 -7351257.837 -24027567.265 -4233489.433 10 0 59951 72900.00000 0 -7196972.127 -23306598.450 -7346987.071 10 0 59951 73800.00000 0 -6817329.692 -22265869.424 -10317196.733 10 0 59951 74700.00000 0 -6179112.437 -20952766.167 -13086070.402 10 0 59951 75600.00000 0 -5259812.668 -19422555.072 -15599445.506 10 0 59951 76500.00000 0 -4048864.207 -17736054.751 -17808127.001 10 0 59951 77400.00000 0 -2548367.482 -15957088.211 -19668871.914 10 0 59951 78300.00000 0 -773275.050 -14149824.232 -21145255.120 10 0 59951 79200.00000 0 1248972.647 -12376121.767 -22208397.668 10 0 59951 80100.00000 0 3479347.398 -10692991.091 -22837542.105 10 0 59951 81000.00000 0 5868632.162 -9150280.229 -23020462.778 10 0 59951 81900.00000 0 8359260.077 -7788685.144 -22753702.834 10 0 59951 82800.00000 0 10887515.672 -6638167.953 -22042633.498 10 0 59951 83700.00000 0 13386005.008 -5716849.359 -20901335.171 10 0 59951 84600.00000 0 15786290.068 -5030420.719 -19352303.753 10 0 59951 85500.00000 0 18021575.823 -4572098.578 -17425989.345 99